Regional Weather Roundup
Issued by NWS Newport/Morehead, NC

Home | Current Version | Previous Version | Text Only | Print | Product List | Glossary On
Versions: 1 2 3 4 5 6 7 8 9 10 11 12 13 14 15 16 17 18 19 20 21 22 23 24 25 26 27 28 29 30 31 32 33 34 35 36 37 38 39 40 41 42 43 44 45 46 47 48 49 50
000
ASUS42 KMHX 022122
RWRMHX
WEATHER ROUNDUP FOR EASTERN NORTH CAROLINA
NATIONAL WEATHER SERVICE NEWPORT/MOREHEAD CITY NC
500 PM EDT TUE SEP 02 2014

NOTE: "FAIR" INDICATES FEW OR NO CLOUDS BELOW 12,000 FEET
WITH NO SIGNIFICANT WEATHER AND/OR OBSTRUCTIONS TO VISIBILITY

NCZ015>017-031-032-045>047-102-103-022200-
NORTH COAST

CITY           SKY/WX    TMP DP  RH WIND       PRES   REMARKS
EDENTON        SUNNY     92  72  50 W6        29.94F
ELIZABETH CITY SUNNY     92  71  50 SW12      29.94F
KITTY HAWK     CLEAR     91  77  63 S7        29.94F HX 103
MANTEO         SUNNY     89  78  70 S15       29.96F HX 103

$$

NCZ045>047-081-094-103-104-022200-
CENTRAL COAST

CITY           SKY/WX    TMP DP  RH WIND       PRES   REMARKS
FRISCO         SUNNY     83  76  79 SW15G24   30.01S
SWANQUARTER      N/A     88 N/A N/A SW16      29.94S

$$

NCZ095-097-098-100-101-022200-
SOUTHERN COAST

CITY           SKY/WX    TMP DP  RH WIND       PRES   REMARKS
BEAUFORT       SUNNY     86  78  77 SW16      30.00F
CEDAR ISLAND     N/A     88 N/A N/A S10G16    30.03S
JACKSONVILLE   SUNNY     88  75  65 S14G20    29.98F
NEWPORT        NOT AVBL
PINEY ISLAND   CLEAR     89  77  67 S15       29.99F HX 101
WILMINGTON     SUNNY     88  75  65 S13       29.99F


$$

NCZ011>013-027>030-043-044-078>080-089-090>093-098-022200-
COASTAL PLAIN

CITY           SKY/WX    TMP DP  RH WIND       PRES   REMARKS
AHOSKIE        SUNNY     91  71  53 CALM      29.94F
CLINTON        MOSUNNY   89  75  63 S5        29.98R
ELIZABETHTOWN  MOSUNNY   89  68  50 SW7       30.01R
GOLDSBORO      MOSUNNY   94  76  56 S9        29.92F HX 106
GREENVILLE     MOSUNNY   93  73  52 S9        29.97F HAZE    HX 102
HAVELOCK       MOSUNNY   88  75  65 SW16G22   30.00F
KENANSVILLE    SUNNY     92  71  49 S3        29.96F
KINSTON        SUNNY     95  70  43 S9        29.96F HX 101
NEW BERN       SUNNY     91  75  59 S13G21    29.99F HX 101
RICHLANDS      SUNNY     91  73  55 S14       29.97F HX 100
ROANOKE RAPIDS NOT AVBL
ROCKY MOUNT    SUNNY     95  70  44 S5        29.95F HX 101
WASHINGTON     SUNNY     93  71  49 SW12      29.95F HX 100
WHITEVILLE     MOSUNNY   87  73  61 S12       30.00R

$$

AMZ130-135-150-152-154-156-158-170-250-252-270-ANZ085-086-088-633-658-670-022200-
MARINE OBSERVATIONS

STATION/POSITION TIME  TEMP    WIND        PRES    WAVE   SWELL
                       AIR SEA DIR/SP/G            HT/PER HT/PER
                 (UTC) (F)     (DEG/KT/KT) (MB)    (FT/S) (FT/S)
CHESAPEAKE LIGHT 2100   84     180/ 18/ 18 1013.4
BUOY 44014       2100   80 79  200/ 12/ 14 1014.2    2/ 9   2/ 9
DUCK             2100   91 75  230/  8/ 11 1013.5
2E DUCK          2100                        N/A     2/12   2/12
OREGON INLET     2100   83 85  190/ 19/ 22 1015.0
BUOY 44095       2100      80                N/A     3/11   2/11
20E OREGON INLET NOT AVBL
HATTERAS CG      2100   84 84  210/ 11/ 16 1016.4
DIAMOND BUOY     2100   82     210/ 16/ 17 1015.9    3/ 4   2/ 9
CAPE LOOKOUT     2100   84     210/ 13/ 17 1016.0
BEAUFORT LAB     2100   83 84  210/ 11/ 15 1015.5
30 SE NEW RIVER  2100   82 83  210/ 14/ 16 1016.4    3/11   2/11
5 SE WRIGHTSVILL 2100   80 83  210/ 16/ 17   N/A
BUOY 41002       2040   82 84  200/ 12/ 14 1018.8    3/11   3/11
BUOY 41004       2100   83 84  180/ 10/ 10 1016.6    3/ 9   2/ 9

$$


USA.gov is the U.S. government's official web portal to all federal, state and local government web resources and services.